Terminal Aerodrome Forecast
Issued by NWS

Home | Current Version | Previous Version | Text Only | Print | Product List | Glossary On
Versions: 1 2 3 4 5 6 7 8 9 10 11 12 13 14
000
FTUS44 KOUN 242328
TAFWWR
TAF
KWWR 242328Z 2500/2524 17015G22KT P6SM FEW050 BKN250
     FM250200 17016G23KT P6SM VCTS SCT050CB BKN250
     FM250500 17015G22KT P6SM FEW035 BKN250
     FM250900 18014G21KT P6SM BKN015
     FM251300 19012KT P6SM FEW015
     FM251900 21015G22KT P6SM SKC
      AMD NOT SKED=

USA.gov is the U.S. government's official web portal to all federal, state and local government web resources and services.